Time,TemperatureF,DewpointF,PressureIn,WindDirection,WindDirectionDegrees,WindSpeedMPH,WindSpeedGustMPH,Humidity,HourlyPrecipIn,Conditions,Clouds,dailyrainin,SoftwareType,DateUTC
2013-03-11 00:04:00,38.1,28.8,29.67,West,269,0.0,0.0,69,0.00,CLR,OVC,1.06,WeatherDisplay:10.37,2013-03-11 05:04:00,
2013-03-11 00:09:00,38.1,28.8,29.67,West,264,0.0,0.0,69,0.00,RA,OVC,0.00,WeatherDisplay:10.37,2013-03-11 05:09:00,
2013-03-11 00:14:00,38.1,28.8,29.67,West,266,0.0,0.0,69,0.00,RA,OVC,0.00,WeatherDisplay:10.37,2013-03-11 05:14:00,
2013-03-11 00:19:00,38.3,29.4,29.67,West,268,0.0,0.0,70,0.00,CLR,OVC,0.00,WeatherDisplay:10.37,2013-03-11 05:19:00,
2013-03-11 00:24:00,38.3,29.4,29.67,West,265,0.0,0.0,70,0.00,CLR,OVC,0.00,WeatherDisplay:10.37,2013-03-11 05:24:00,
2013-03-11 00:29:00,38.3,29.4,29.67,West,267,0.0,0.0,70,0.00,CLR,OVC,0.00,WeatherDisplay:10.37,2013-03-11 05:29:00,
2013-03-11 00:34:00,38.3,29.4,29.67,West,266,0.0,0.0,70,0.00,CLR,OVC,0.00,WeatherDisplay:10.37,2013-03-11 05:34:00,
2013-03-11 00:39:00,38.1,29.2,29.67,West,267,0.0,0.0,70,0.00,CLR,OVC,0.00,WeatherDisplay:10.37,2013-03-11 05:39:00,
2013-03-11 00:44:00,38.1,29.2,29.67,West,268,0.0,0.0,70,0.00,CLR,OVC,0.00,WeatherDisplay:10.37,2013-03-11 05:44:00,
2013-03-11 00:49:00,38.1,29.2,29.67,West,268,0.0,0.0,70,0.00,CLR,OVC,0.00,WeatherDisplay:10.37,2013-03-11 05:49:00,
2013-03-11 00:54:00,38.1,29.2,29.67,West,268,0.0,0.0,70,0.00,CLR,OVC,0.00,WeatherDisplay:10.37,2013-03-11 05:54:00,
2013-03-11 00:59:00,38.1,29.2,29.67,West,269,0.0,0.0,70,0.00,CLR,OVC,0.00,WeatherDisplay:10.37,2013-03-11 05:59:00,
2013-03-11 01:04:00,38.1,29.2,29.67,West,266,0.0,0.0,70,0.00,CLR,OVC,0.00,WeatherDisplay:10.37,2013-03-11 06:04:00,
2013-03-11 01:09:00,38.1,29.2,29.67,West,267,0.0,0.0,70,0.00,CLR,OVC,0.00,WeatherDisplay:10.37,2013-03-11 06:09:00,
2013-03-11 01:14:00,38.1,29.2,29.67,West,266,0.0,0.0,70,0.00,CLR,OVC,0.00,WeatherDisplay:10.37,2013-03-11 06:14:00,
2013-03-11 01:19:00,37.9,29.0,29.67,West,269,0.0,0.0,70,0.00,CLR,OVC,0.00,WeatherDisplay:10.37,2013-03-11 06:19:00,
2013-03-11 01:24:00,37.9,29.0,29.67,West,270,0.0,0.0,70,0.00,CLR,OVC,0.00,WeatherDisplay:10.37,2013-03-11 06:24:00,
2013-03-11 01:29:00,37.8,28.9,29.67,West,268,0.0,0.0,70,0.00,CLR,OVC,0.00,WeatherDisplay:10.37,2013-03-11 06:29:00,
2013-03-11 01:34:00,37.6,28.7,29.67,West,269,0.0,0.0,70,0.00,CLR,OVC,0.00,WeatherDisplay:10.37,2013-03-11 06:34:00,
2013-03-11 01:39:00,37.6,28.7,29.67,West,266,0.0,0.0,70,0.00,CLR,OVC,0.00,WeatherDisplay:10.37,2013-03-11 06:39:00,
2013-03-11 01:45:00,37.4,28.5,29.67,West,266,0.0,0.0,70,0.00,CLR,OVC,0.00,WeatherDisplay:10.37,2013-03-11 06:45:00,
2013-03-11 01:50:00,37.4,28.5,29.67,West,268,0.0,0.0,70,0.00,CLR,OVC,0.00,WeatherDisplay:10.37,2013-03-11 06:50:00,
2013-03-11 01:55:00,37.4,28.5,29.67,West,268,0.0,0.0,70,0.00,CLR,OVC,0.00,WeatherDisplay:10.37,2013-03-11 06:55:00,
2013-03-11 02:00:00,37.4,28.5,29.67,West,269,0.0,0.0,70,0.00,CLR,OVC,0.00,WeatherDisplay:10.37,2013-03-11 07:00:00,
2013-03-11 02:05:00,37.2,28.3,29.67,West,269,0.0,0.0,70,0.00,CLR,OVC,0.00,WeatherDisplay:10.37,2013-03-11 07:05:00,
2013-03-11 02:10:00,37.2,28.3,29.67,West,276,0.0,0.0,70,0.00,CLR,OVC,0.00,WeatherDisplay:10.37,2013-03-11 07:10:00,
2013-03-11 02:15:00,37.0,28.2,29.67,West,275,0.0,0.0,70,0.00,CLR,OVC,0.00,WeatherDisplay:10.37,2013-03-11 07:15:00,
2013-03-11 02:20:00,37.0,28.2,29.67,NW,314,0.0,0.0,70,0.00,CLR,OVC,0.00,WeatherDisplay:10.37,2013-03-11 07:20:00,
2013-03-11 02:25:00,37.0,28.2,29.67,NW,322,0.0,0.0,70,0.00,CLR,OVC,0.00,WeatherDisplay:10.37,2013-03-11 07:25:00,
2013-03-11 02:30:00,36.9,28.0,29.67,NW,312,0.0,0.0,70,0.00,CLR,OVC,0.00,WeatherDisplay:10.37,2013-03-11 07:30:00,
2013-03-11 02:35:00,36.9,28.0,29.67,NW,313,0.0,0.0,70,0.00,CLR,OVC,0.00,WeatherDisplay:10.37,2013-03-11 07:35:00,
2013-03-11 02:40:00,36.9,28.0,29.67,NW,311,0.0,0.0,70,0.00,CLR,OVC,0.00,WeatherDisplay:10.37,2013-03-11 07:40:00,
2013-03-11 02:45:00,36.7,27.8,29.67,NW,313,0.0,0.0,70,0.00,CLR,OVC,0.00,WeatherDisplay:10.37,2013-03-11 07:45:00,
2013-03-11 02:50:00,36.7,27.8,29.67,NW,312,0.0,0.0,70,0.00,CLR,OVC,0.00,WeatherDisplay:10.37,2013-03-11 07:50:00,
2013-03-11 02:55:00,36.7,27.8,29.67,NW,312,0.0,0.0,70,0.00,CLR,OVC,0.00,WeatherDisplay:10.37,2013-03-11 07:55:00,
2013-03-11 03:00:00,36.5,27.6,29.67,NW,312,0.0,0.0,70,0.00,CLR,OVC,0.00,WeatherDisplay:10.37,2013-03-11 08:00:00,
2013-03-11 03:05:00,36.5,27.6,29.67,NW,313,0.0,0.0,70,0.00,CLR,OVC,0.00,WeatherDisplay:10.37,2013-03-11 08:05:00,
2013-03-11 03:10:00,36.3,27.5,29.67,NW,314,0.0,0.0,70,0.00,OVC,,0.00,WeatherDisplay:10.37,2013-03-11 08:10:00,
2013-03-11 03:15:00,36.3,27.5,29.67,NW,312,0.0,0.0,70,0.00,OVC,,0.00,WeatherDisplay:10.37,2013-03-11 08:15:00,
2013-03-11 03:20:00,36.3,27.8,29.67,NW,313,0.0,0.0,71,0.00,OVC,,0.00,WeatherDisplay:10.37,2013-03-11 08:20:00,
2013-03-11 03:25:00,36.3,27.8,29.67,NW,315,0.0,0.0,71,0.00,CLR,OVC,0.00,WeatherDisplay:10.37,2013-03-11 08:25:00,
2013-03-11 03:30:00,36.3,27.8,29.67,NW,315,0.0,0.0,71,0.00,CLR,OVC,0.00,WeatherDisplay:10.37,2013-03-11 08:30:00,
2013-03-11 03:35:00,36.3,27.8,29.67,NW,314,0.0,0.0,71,0.00,CLR,OVC,0.00,WeatherDisplay:10.37,2013-03-11 08:35:00,
2013-03-11 03:40:00,36.3,27.8,29.67,NW,314,0.0,0.0,71,0.00,CLR,OVC,0.00,WeatherDisplay:10.37,2013-03-11 08:40:00,
2013-03-11 03:45:00,36.3,27.5,29.65,NW,315,0.0,0.0,70,0.00,CLR,OVC,0.00,WeatherDisplay:10.37,2013-03-11 08:45:00,
2013-03-11 03:50:00,36.1,27.6,29.65,NW,311,0.0,0.0,71,0.00,CLR,OVC,0.00,WeatherDisplay:10.37,2013-03-11 08:50:00,
2013-03-11 03:55:00,36.3,27.8,29.65,NW,313,0.0,0.0,71,0.00,CLR,OVC,0.00,WeatherDisplay:10.37,2013-03-11 08:55:00,
2013-03-11 04:00:00,36.3,27.8,29.65,NW,312,0.0,0.0,71,0.00,CLR,OVC,0.00,WeatherDisplay:10.37,2013-03-11 09:00:00,
2013-03-11 04:05:00,36.3,27.8,29.65,NW,312,0.0,0.0,71,0.00,CLR,OVC,0.00,WeatherDisplay:10.37,2013-03-11 09:05:00,
2013-03-11 04:10:00,36.3,27.8,29.65,South,182,0.0,0.0,71,0.00,OVC,,0.00,WeatherDisplay:10.37,2013-03-11 09:10:00,
2013-03-11 04:15:00,36.3,27.8,29.65,SW,231,0.0,0.0,71,0.00,OVC,,0.00,WeatherDisplay:10.37,2013-03-11 09:15:00,
2013-03-11 04:20:00,36.1,27.6,29.65,WSW,240,0.0,0.0,71,0.00,OVC,,0.00,WeatherDisplay:10.37,2013-03-11 09:20:00,
2013-03-11 04:25:00,36.1,27.6,29.65,WSW,241,0.0,0.0,71,0.00,OVC,,0.00,WeatherDisplay:10.37,2013-03-11 09:25:00,
2013-03-11 04:30:00,36.0,27.5,29.65,WSW,240,0.0,0.0,71,0.00,OVC,,0.00,WeatherDisplay:10.37,2013-03-11 09:30:00,
2013-03-11 04:35:00,36.0,27.5,29.65,SW,235,0.0,0.0,71,0.00,OVC,,0.00,WeatherDisplay:10.37,2013-03-11 09:35:00,
2013-03-11 04:40:00,36.0,27.5,29.65,SW,234,0.0,0.0,71,0.00,OVC,,0.00,WeatherDisplay:10.37,2013-03-11 09:40:00,
2013-03-11 04:45:00,36.0,27.5,29.65,SW,232,0.0,0.0,71,0.00,OVC,,0.00,WeatherDisplay:10.37,2013-03-11 09:45:00,
2013-03-11 04:50:00,36.0,27.5,29.65,SW,233,0.0,0.0,71,0.00,OVC,,0.00,WeatherDisplay:10.37,2013-03-11 09:50:00,
2013-03-11 04:55:00,35.8,27.3,29.65,SW,232,0.0,0.0,71,0.00,OVC,,0.00,WeatherDisplay:10.37,2013-03-11 09:55:00,
2013-03-11 05:00:00,35.8,27.3,29.65,SW,233,0.0,0.0,71,0.00,OVC,,0.00,WeatherDisplay:10.37,2013-03-11 10:00:00,
2013-03-11 05:05:00,35.8,27.3,29.65,SW,229,0.0,0.0,71,0.00,OVC,,0.00,WeatherDisplay:10.37,2013-03-11 10:05:00,
2013-03-11 05:10:00,35.8,27.3,29.65,SW,228,0.0,0.0,71,0.00,OVC,,0.00,WeatherDisplay:10.37,2013-03-11 10:10:00,
2013-03-11 05:15:00,35.8,27.3,29.65,SW,229,0.0,0.0,71,0.00,OVC,,0.00,WeatherDisplay:10.37,2013-03-11 10:15:00,
2013-03-11 05:20:00,35.8,27.3,29.65,SW,229,0.0,0.0,71,0.00,OVC,,0.00,WeatherDisplay:10.37,2013-03-11 10:20:00,
2013-03-11 05:25:00,35.8,27.3,29.65,SW,229,0.0,0.0,71,0.00,OVC,,0.00,WeatherDisplay:10.37,2013-03-11 10:25:00,
2013-03-11 05:30:00,35.8,27.3,29.67,SW,228,0.0,0.0,71,0.00,OVC,,0.00,WeatherDisplay:10.37,2013-03-11 10:30:00,
2013-03-11 05:35:00,35.8,27.3,29.67,SW,229,0.0,0.0,71,0.00,OVC,,0.00,WeatherDisplay:10.37,2013-03-11 10:35:00,
2013-03-11 05:40:00,35.8,27.3,29.67,SW,228,0.0,0.0,71,0.00,OVC,,0.00,WeatherDisplay:10.37,2013-03-11 10:40:00,
2013-03-11 05:45:00,35.8,27.3,29.67,West,265,3.5,0.0,71,0.00,OVC,,0.00,WeatherDisplay:10.37,2013-03-11 10:45:00,
2013-03-11 05:50:00,35.8,27.3,29.67,SW,232,0.0,0.0,71,0.00,OVC,,0.00,WeatherDisplay:10.37,2013-03-11 10:50:00,
2013-03-11 05:55:00,35.8,27.3,29.67,WSW,248,0.0,0.0,71,0.00,OVC,,0.00,WeatherDisplay:10.37,2013-03-11 10:55:00,
2013-03-11 06:00:00,35.8,27.3,29.67,WSW,248,0.0,0.0,71,0.00,OVC,,0.00,WeatherDisplay:10.37,2013-03-11 11:00:00,
2013-03-11 06:05:00,35.8,27.3,29.67,WSW,249,0.0,0.0,71,0.00,OVC,,0.00,WeatherDisplay:10.37,2013-03-11 11:05:00,
2013-03-11 06:10:00,35.8,27.3,29.67,WSW,247,0.0,0.0,71,0.00,OVC,,0.00,WeatherDisplay:10.37,2013-03-11 11:10:00,
2013-03-11 06:15:00,35.8,27.3,29.67,SW,223,0.0,0.0,71,0.00,OVC,,0.00,WeatherDisplay:10.37,2013-03-11 11:15:00,
2013-03-11 06:20:00,35.8,27.3,29.67,SW,216,0.0,0.0,71,0.00,OVC,,0.00,WeatherDisplay:10.37,2013-03-11 11:20:00,
2013-03-11 06:25:00,35.8,27.3,29.67,SW,218,0.0,0.0,71,0.00,OVC,,0.00,WeatherDisplay:10.37,2013-03-11 11:25:00,
2013-03-11 06:30:00,35.8,27.3,29.70,South,181,0.0,0.0,71,0.00,OVC,,0.00,WeatherDisplay:10.37,2013-03-11 11:30:00,
2013-03-11 06:35:00,35.8,27.3,29.70,South,183,0.0,0.0,71,0.00,OVC,,0.00,WeatherDisplay:10.37,2013-03-11 11:35:00,
2013-03-11 06:40:00,35.6,27.1,29.70,WSW,248,2.3,0.0,71,0.00,OVC,,0.00,WeatherDisplay:10.37,2013-03-11 11:40:00,
2013-03-11 06:45:00,35.6,27.1,29.70,SW,224,0.0,0.0,71,0.00,OVC,,0.00,WeatherDisplay:10.37,2013-03-11 11:45:00,
2013-03-11 06:50:00,35.6,27.1,29.70,SSW,208,0.0,0.0,71,0.00,OVC,,0.00,WeatherDisplay:10.37,2013-03-11 11:50:00,
2013-03-11 06:55:00,35.6,27.1,29.70,SSW,208,0.0,0.0,71,0.00,OVC,,0.00,WeatherDisplay:10.37,2013-03-11 11:55:00,
2013-03-11 07:00:00,35.6,27.1,29.70,WSW,253,0.0,0.0,71,0.00,OVC,,0.00,WeatherDisplay:10.37,2013-03-11 12:00:00,
2013-03-11 07:05:00,35.6,27.1,29.70,West,264,0.0,0.0,71,0.00,OVC,,0.00,WeatherDisplay:10.37,2013-03-11 12:05:00,
2013-03-11 07:10:00,35.4,26.9,29.70,West,260,2.3,0.0,71,0.00,OVC,,0.00,WeatherDisplay:10.37,2013-03-11 12:10:00,
2013-03-11 07:15:00,35.4,26.9,29.70,West,262,2.3,0.0,71,0.00,OVC,,0.00,WeatherDisplay:10.37,2013-03-11 12:15:00,
2013-03-11 07:20:00,35.1,26.6,29.70,West,264,0.0,0.0,71,0.00,OVC,,0.00,WeatherDisplay:10.37,2013-03-11 12:20:00,
2013-03-11 07:25:00,34.9,26.4,29.70,West,264,0.0,0.0,71,0.00,OVC,,0.00,WeatherDisplay:10.37,2013-03-11 12:25:00,
2013-03-11 07:30:00,34.5,25.7,29.70,West,264,0.0,0.0,70,0.00,OVC,,0.00,WeatherDisplay:10.37,2013-03-11 12:30:00,
2013-03-11 07:35:00,34.2,25.4,29.70,West,263,0.0,0.0,70,0.00,OVC,,0.00,WeatherDisplay:10.37,2013-03-11 12:35:00,
2013-03-11 07:40:00,34.0,25.2,29.70,West,268,0.0,0.0,70,0.00,OVC,,0.00,WeatherDisplay:10.37,2013-03-11 12:40:00,
2013-03-11 07:45:00,33.8,25.0,29.70,West,269,0.0,0.0,70,0.00,OVC,,0.00,WeatherDisplay:10.37,2013-03-11 12:45:00,
2013-03-11 07:50:00,33.6,25.2,29.70,West,267,0.0,0.0,71,0.00,OVC,,0.00,WeatherDisplay:10.37,2013-03-11 12:50:00,
2013-03-11 07:55:00,33.6,25.2,29.70,West,268,0.0,0.0,71,0.00,-RA,OVC,0.00,WeatherDisplay:10.37,2013-03-11 12:55:00,
2013-03-11 08:00:00,33.8,25.4,29.70,West,271,0.0,0.0,71,0.00,-RA,OVC,0.00,WeatherDisplay:10.37,2013-03-11 13:00:00,
2013-03-11 08:05:00,33.8,25.4,29.70,West,268,0.0,0.0,71,0.00,-RA,OVC,0.00,WeatherDisplay:10.37,2013-03-11 13:05:00,
2013-03-11 08:11:00,33.8,25.4,29.70,West,271,0.0,0.0,71,0.00,OVC,,0.00,WeatherDisplay:10.37,2013-03-11 13:11:00,
2013-03-11 08:16:00,34.0,25.6,29.70,West,271,0.0,0.0,71,0.00,OVC,,0.00,WeatherDisplay:10.37,2013-03-11 13:16:00,
2013-03-11 08:21:00,34.0,25.9,29.70,NW,316,0.0,0.0,72,0.00,OVC,,0.00,WeatherDisplay:10.37,2013-03-11 13:21:00,
2013-03-11 08:26:00,34.2,26.1,29.70,NW,318,0.0,0.0,72,0.00,OVC,,0.00,WeatherDisplay:10.37,2013-03-11 13:26:00,
2013-03-11 08:31:00,34.3,26.2,29.70,West,281,0.0,0.0,72,0.00,OVC,,0.00,WeatherDisplay:10.37,2013-03-11 13:31:00,
2013-03-11 08:36:00,34.3,26.2,29.70,West,260,0.0,0.0,72,0.00,OVC,,0.00,WeatherDisplay:10.37,2013-03-11 13:36:00,
2013-03-11 08:42:00,34.3,26.2,29.70,WNW,283,0.0,0.0,72,0.00,OVC,,0.00,WeatherDisplay:10.37,2013-03-11 13:42:00,
2013-03-11 08:47:00,34.3,26.2,29.70,WNW,283,0.0,0.0,72,0.00,OVC,,0.00,WeatherDisplay:10.37,2013-03-11 13:47:00,
2013-03-11 08:52:00,34.3,26.2,29.70,West,281,0.0,0.0,72,0.00,OVC,,0.00,WeatherDisplay:10.37,2013-03-11 13:52:00,
2013-03-11 08:57:00,34.3,26.2,29.70,WNW,285,0.0,0.0,72,0.00,OVC,,0.00,WeatherDisplay:10.37,2013-03-11 13:57:00,
2013-03-11 09:02:00,34.3,26.2,29.70,West,265,0.0,0.0,72,0.00,OVC,,0.00,WeatherDisplay:10.37,2013-03-11 14:02:00,
2013-03-11 09:07:00,34.3,26.2,29.70,West,266,0.0,0.0,72,0.00,OVC,,0.00,WeatherDisplay:10.37,2013-03-11 14:07:00,
2013-03-11 09:12:00,34.3,26.2,29.70,West,278,2.3,0.0,72,0.00,OVC,,0.04,WeatherDisplay:10.37,2013-03-11 14:12:00,
2013-03-11 09:17:00,34.3,26.2,29.70,NW,304,0.0,0.0,72,0.04,RA,OVC,0.04,WeatherDisplay:10.37,2013-03-11 14:17:00,
2013-03-11 09:22:00,34.3,26.2,29.70,NNW,348,2.3,0.0,72,0.04,RA,OVC,0.04,WeatherDisplay:10.37,2013-03-11 14:22:00,
2013-03-11 09:27:00,34.3,26.2,29.70,WSW,247,2.3,0.0,72,0.04,OVC,,0.04,WeatherDisplay:10.37,2013-03-11 14:27:00,
2013-03-11 09:32:00,34.3,26.2,29.70,WNW,299,0.0,0.0,72,0.04,OVC,,0.04,WeatherDisplay:10.37,2013-03-11 14:32:00,
2013-03-11 09:37:00,34.3,26.2,29.70,WNW,283,0.0,0.0,72,0.04,OVC,,0.04,WeatherDisplay:10.37,2013-03-11 14:37:00,
2013-03-11 09:42:00,34.5,26.4,29.70,WNW,283,0.0,0.0,72,0.04,OVC,,0.04,WeatherDisplay:10.37,2013-03-11 14:42:00,
2013-03-11 09:48:00,34.5,26.4,29.70,NW,322,4.6,0.0,72,0.04,OVC,,0.04,WeatherDisplay:10.37,2013-03-11 14:48:00,
2013-03-11 09:53:00,34.5,26.4,29.70,WSW,252,0.0,0.0,72,0.04,OVC,,0.04,WeatherDisplay:10.37,2013-03-11 14:53:00,
2013-03-11 09:58:00,34.5,26.4,29.70,West,281,0.0,0.0,72,0.04,OVC,,0.04,WeatherDisplay:10.37,2013-03-11 14:58:00,
2013-03-11 10:03:00,34.5,26.4,29.70,West,274,0.0,0.0,72,0.04,OVC,,0.04,WeatherDisplay:10.37,2013-03-11 15:03:00,
2013-03-11 10:08:00,34.5,26.4,29.70,West,275,0.0,0.0,72,0.04,OVC,,0.04,WeatherDisplay:10.37,2013-03-11 15:08:00,
2013-03-11 10:13:00,34.5,26.4,29.70,NW,310,0.0,0.0,72,0.00,OVC,,0.04,WeatherDisplay:10.37,2013-03-11 15:13:00,
2013-03-11 10:18:00,34.5,26.4,29.70,WNW,283,3.5,0.0,72,0.00,OVC,,0.04,WeatherDisplay:10.37,2013-03-11 15:18:00,
2013-03-11 10:23:00,34.5,26.4,29.70,WNW,282,0.0,0.0,72,0.00,OVC,,0.04,WeatherDisplay:10.37,2013-03-11 15:23:00,
2013-03-11 10:28:00,34.5,26.4,29.70,NW,309,0.0,0.0,72,0.00,OVC,,0.04,WeatherDisplay:10.37,2013-03-11 15:28:00,
2013-03-11 10:33:00,34.5,26.4,29.70,WNW,285,0.0,0.0,72,0.00,OVC,,0.04,WeatherDisplay:10.37,2013-03-11 15:33:00,
2013-03-11 10:38:00,34.5,26.4,29.70,West,266,3.5,0.0,72,0.00,OVC,,0.04,WeatherDisplay:10.37,2013-03-11 15:38:00,
2013-03-11 10:43:00,34.5,26.4,29.70,West,273,3.5,0.0,72,0.00,OVC,,0.04,WeatherDisplay:10.37,2013-03-11 15:43:00,
2013-03-11 10:48:00,34.5,26.4,29.70,West,265,4.6,4.6,72,0.00,OVC,,0.04,WeatherDisplay:10.37,2013-03-11 15:48:00,
2013-03-11 10:53:00,34.5,26.4,29.70,West,273,2.3,0.0,72,0.00,OVC,,0.04,WeatherDisplay:10.37,2013-03-11 15:53:00,
2013-03-11 10:58:00,34.5,26.4,29.70,WNW,284,0.0,0.0,72,0.00,OVC,,0.04,WeatherDisplay:10.37,2013-03-11 15:58:00,
2013-03-11 11:03:00,34.5,26.4,29.70,WNW,283,3.6,0.0,72,0.00,OVC,,0.04,WeatherDisplay:10.37,2013-03-11 16:03:00,
2013-03-11 11:08:00,34.3,26.2,29.70,West,270,0.0,0.0,72,0.00,-RA,OVC,0.04,WeatherDisplay:10.37,2013-03-11 16:08:00,
2013-03-11 11:13:00,34.3,26.2,29.70,WSW,254,0.0,0.0,72,0.00,-RA,OVC,0.04,WeatherDisplay:10.37,2013-03-11 16:13:00,
2013-03-11 11:18:00,34.3,26.2,29.70,West,268,3.5,0.0,72,0.00,-RA,OVC,0.04,WeatherDisplay:10.37,2013-03-11 16:18:00,
2013-03-11 11:23:00,34.3,26.2,29.70,West,273,0.0,0.0,72,0.00,-RA,OVC,0.04,WeatherDisplay:10.37,2013-03-11 16:23:00,
2013-03-11 11:29:00,34.3,26.2,29.70,NW,312,4.6,0.0,72,0.00,-RA,OVC,0.04,WeatherDisplay:10.37,2013-03-11 16:29:00,
2013-03-11 11:34:00,34.5,26.4,29.70,WNW,286,0.0,0.0,72,0.00,-RA,OVC,0.04,WeatherDisplay:10.37,2013-03-11 16:34:00,
2013-03-11 11:39:00,34.5,26.8,29.70,West,270,0.0,0.0,73,0.00,-RA,OVC,0.04,WeatherDisplay:10.37,2013-03-11 16:39:00,
2013-03-11 11:44:00,34.5,26.8,29.70,West,275,3.5,0.0,73,0.00,-RA,OVC,0.04,WeatherDisplay:10.37,2013-03-11 16:44:00,
2013-03-11 11:49:00,34.7,26.9,29.70,West,272,0.0,0.0,73,0.00,-RA,OVC,0.04,WeatherDisplay:10.37,2013-03-11 16:49:00,
2013-03-11 11:54:00,34.9,27.1,29.70,West,280,2.3,2.3,73,0.00,-RA,OVC,0.04,WeatherDisplay:10.37,2013-03-11 16:54:00,
2013-03-11 11:59:00,34.9,27.1,29.70,West,269,5.8,5.8,73,0.00,-RA,OVC,0.04,WeatherDisplay:10.37,2013-03-11 16:59:00,
2013-03-11 12:04:00,34.7,26.9,29.70,West,281,3.5,0.0,73,0.00,-RA,OVC,0.04,WeatherDisplay:10.37,2013-03-11 17:04:00,
2013-03-11 12:09:00,34.7,26.9,29.70,West,271,3.5,3.5,73,0.00,-RA,OVC,0.04,WeatherDisplay:10.37,2013-03-11 17:09:00,
2013-03-11 12:14:00,34.5,26.8,29.70,West,264,5.8,5.8,73,0.00,-RA,OVC,0.04,WeatherDisplay:10.37,2013-03-11 17:14:00,
2013-03-11 12:19:00,34.5,26.8,29.70,West,262,5.8,5.8,73,0.00,-RA,OVC,0.04,WeatherDisplay:10.37,2013-03-11 17:19:00,
2013-03-11 12:24:00,34.3,26.2,29.70,WSW,252,3.5,3.5,72,0.00,-RA,OVC,0.04,WeatherDisplay:10.37,2013-03-11 17:24:00,
2013-03-11 12:29:00,34.3,26.2,29.73,West,279,5.8,5.8,72,0.00,-RA,OVC,0.04,WeatherDisplay:10.37,2013-03-11 17:29:00,
2013-03-11 12:34:00,34.3,26.2,29.73,WNW,295,2.3,0.0,72,0.00,-RA,OVC,0.04,WeatherDisplay:10.37,2013-03-11 17:34:00,
2013-03-11 12:39:00,34.2,26.1,29.73,WSW,248,3.5,3.5,72,0.00,-RA,OVC,0.04,WeatherDisplay:10.37,2013-03-11 17:39:00,
2013-03-11 12:44:00,34.0,25.9,29.73,West,276,4.6,0.0,72,0.00,-RA,OVC,0.04,WeatherDisplay:10.37,2013-03-11 17:44:00,
2013-03-11 12:49:00,34.0,25.9,29.73,SW,222,5.8,5.8,72,0.00,-RA,OVC,0.04,WeatherDisplay:10.37,2013-03-11 17:49:00,
2013-03-11 12:54:00,34.0,25.9,29.73,NNW,333,5.8,5.8,72,0.00,-RA,OVC,0.04,WeatherDisplay:10.37,2013-03-11 17:54:00,
2013-03-11 12:59:00,33.8,25.7,29.73,West,264,3.5,3.5,72,0.00,-RA,OVC,0.04,WeatherDisplay:10.37,2013-03-11 17:59:00,
2013-03-11 13:04:00,33.8,25.7,29.73,NNW,340,3.5,3.5,72,0.00,-RA,OVC,0.04,WeatherDisplay:10.37,2013-03-11 18:04:00,
2013-03-11 13:09:00,34.0,25.9,29.73,NNW,341,6.9,6.9,72,0.00,OVC,,0.04,WeatherDisplay:10.37,2013-03-11 18:09:00,
2013-03-11 13:14:00,34.0,26.2,29.73,West,265,5.8,5.8,73,0.00,OVC,,0.04,WeatherDisplay:10.37,2013-03-11 18:14:00,
2013-03-11 13:19:00,34.0,26.2,29.73,WSW,256,8.1,8.1,73,0.00,OVC,,0.04,WeatherDisplay:10.37,2013-03-11 18:19:00,
2013-03-11 13:24:00,34.0,25.9,29.73,SSW,206,5.8,5.8,72,0.00,OVC,,0.04,WeatherDisplay:10.37,2013-03-11 18:24:00,
2013-03-11 13:29:00,33.8,25.7,29.73,NW,325,5.8,5.8,72,0.00,OVC,,0.04,WeatherDisplay:10.37,2013-03-11 18:29:00,
2013-03-11 13:34:00,33.8,25.7,29.73,SW,236,5.8,5.8,72,0.00,OVC,,0.04,WeatherDisplay:10.37,2013-03-11 18:34:00,
2013-03-11 13:39:00,34.0,26.2,29.73,WNW,295,4.6,0.0,73,0.00,OVC,,0.04,WeatherDisplay:10.37,2013-03-11 18:39:00,
2013-03-11 13:44:00,33.8,25.7,29.73,SW,235,5.8,5.8,72,0.00,OVC,,0.04,WeatherDisplay:10.37,2013-03-11 18:44:00,
2013-03-11 13:49:00,33.8,25.7,29.73,West,273,8.1,8.1,72,0.00,OVC,,0.04,WeatherDisplay:10.37,2013-03-11 18:49:00,
2013-03-11 13:54:00,33.6,25.9,29.73,West,268,3.5,3.5,73,0.00,OVC,,0.04,WeatherDisplay:10.37,2013-03-11 18:54:00,
2013-03-11 13:59:00,33.6,25.9,29.73,SW,232,3.5,0.0,73,0.00,OVC,,0.04,WeatherDisplay:10.37,2013-03-11 18:59:00,
2013-03-11 14:04:00,33.8,25.7,29.73,WNW,291,2.3,0.0,72,0.00,OVC,,0.04,WeatherDisplay:10.37,2013-03-11 19:04:00,
2013-03-11 14:09:00,33.8,25.7,29.73,WNW,287,3.5,3.5,72,0.00,-SN,OVC,0.04,WeatherDisplay:10.37,2013-03-11 19:09:00,
2013-03-11 14:14:00,33.8,26.1,29.73,WSW,258,8.1,8.1,73,0.00,-SN,OVC,0.04,WeatherDisplay:10.37,2013-03-11 19:14:00,
2013-03-11 14:19:00,34.0,26.2,29.73,WNW,301,3.5,3.5,73,0.00,-SN,OVC,0.04,WeatherDisplay:10.37,2013-03-11 19:19:00,
2013-03-11 14:24:00,34.2,26.4,29.73,WSW,250,5.8,5.8,73,0.00,-SN,OVC,0.04,WeatherDisplay:10.37,2013-03-11 19:24:00,
2013-03-11 14:29:00,34.3,26.6,29.73,NW,304,5.8,5.8,73,0.00,-SN,OVC,0.04,WeatherDisplay:10.37,2013-03-11 19:29:00,
2013-03-11 14:34:00,34.2,26.4,29.73,SW,218,5.8,5.8,73,0.00,-SN,OVC,0.04,WeatherDisplay:10.37,2013-03-11 19:34:00,
2013-03-11 14:39:00,34.2,26.1,29.73,West,261,3.5,0.0,72,0.00,-SN,OVC,0.04,WeatherDisplay:10.37,2013-03-11 19:39:00,
2013-03-11 14:44:00,34.0,25.9,29.73,West,268,6.9,6.9,72,0.00,-SN,OVC,0.04,WeatherDisplay:10.37,2013-03-11 19:44:00,
2013-03-11 14:49:00,33.8,25.7,29.73,NW,310,8.1,8.1,72,0.00,-SN,OVC,0.04,WeatherDisplay:10.37,2013-03-11 19:49:00,
2013-03-11 14:54:00,34.0,25.9,29.73,NW,307,5.8,5.8,72,0.00,-SN,OVC,0.04,WeatherDisplay:10.37,2013-03-11 19:54:00,
2013-03-11 14:59:00,34.0,25.6,29.73,NW,318,3.5,3.5,71,0.00,-SN,OVC,0.04,WeatherDisplay:10.37,2013-03-11 19:59:00,
2013-03-11 15:04:00,33.8,25.0,29.73,West,272,5.8,5.8,70,0.00,-SN,OVC,0.04,WeatherDisplay:10.37,2013-03-11 20:04:00,
2013-03-11 15:09:00,33.6,24.5,29.73,NW,304,3.5,0.0,69,0.00,-SN,OVC,0.04,WeatherDisplay:10.37,2013-03-11 20:09:00,
2013-03-11 15:14:00,33.6,24.2,29.73,WSW,258,8.1,8.1,68,0.00,-SN,OVC,0.04,WeatherDisplay:10.37,2013-03-11 20:14:00,
2013-03-11 15:20:00,33.4,23.3,29.73,NNE,31,3.5,3.5,66,0.00,-SN,OVC,0.04,WeatherDisplay:10.37,2013-03-11 20:20:00,
2013-03-11 15:25:00,33.4,23.3,29.73,West,260,5.8,5.8,66,0.00,-SN,OVC,0.04,WeatherDisplay:10.37,2013-03-11 20:25:00,
2013-03-11 15:30:00,33.3,22.8,29.73,WSW,256,5.8,5.8,65,0.00,-SN,OVC,0.04,WeatherDisplay:10.37,2013-03-11 20:30:00,
2013-03-11 15:35:00,33.1,22.2,29.73,West,268,5.8,5.8,64,0.00,-SN,OVC,0.04,WeatherDisplay:10.37,2013-03-11 20:35:00,
2013-03-11 15:40:00,33.1,22.2,29.73,West,280,3.5,3.5,64,0.00,-SN,OVC,0.04,WeatherDisplay:10.37,2013-03-11 20:40:00,
2013-03-11 15:45:00,33.1,22.2,29.73,WSW,247,0.0,0.0,64,0.00,-SN,OVC,0.04,WeatherDisplay:10.37,2013-03-11 20:45:00,
2013-03-11 15:50:00,33.1,22.2,29.73,WNW,288,4.6,4.6,64,0.00,-SN,OVC,0.04,WeatherDisplay:10.37,2013-03-11 20:50:00,
2013-03-11 15:55:00,33.1,22.2,29.73,West,262,5.8,5.8,64,0.00,-SN,OVC,0.04,WeatherDisplay:10.37,2013-03-11 20:55:00,
2013-03-11 16:00:00,33.1,21.8,29.76,WNW,289,4.6,4.6,63,0.00,-SN,OVC,0.04,WeatherDisplay:10.37,2013-03-11 21:00:00,
2013-03-11 16:05:00,32.9,21.3,29.76,NW,309,8.1,8.1,62,0.00,-SN,OVC,0.04,WeatherDisplay:10.37,2013-03-11 21:05:00,
2013-03-11 16:10:00,32.9,20.9,29.76,WNW,282,5.8,5.8,61,0.00,OVC,,0.04,WeatherDisplay:10.37,2013-03-11 21:10:00,
2013-03-11 16:15:00,33.1,20.3,29.76,WNW,288,5.8,5.8,59,0.00,OVC,,0.04,WeatherDisplay:10.37,2013-03-11 21:15:00,
2013-03-11 16:20:00,33.1,19.9,29.76,WNW,287,4.6,4.6,58,0.00,OVC,,0.04,WeatherDisplay:10.37,2013-03-11 21:20:00,
2013-03-11 16:25:00,33.3,19.7,29.76,NW,313,8.1,8.1,57,0.00,OVC,,0.04,WeatherDisplay:10.37,2013-03-11 21:25:00,
2013-03-11 16:30:00,33.1,18.7,29.76,WNW,301,5.8,5.8,55,0.00,OVC,,0.04,WeatherDisplay:10.37,2013-03-11 21:30:00,
2013-03-11 16:35:00,33.1,18.2,29.76,West,268,3.5,3.5,54,0.00,OVC,,0.04,WeatherDisplay:10.37,2013-03-11 21:35:00,
2013-03-11 16:40:00,33.1,16.9,29.76,West,276,6.9,6.9,51,0.00,OVC,,0.04,WeatherDisplay:10.37,2013-03-11 21:40:00,
2013-03-11 16:45:00,33.1,16.4,29.76,West,264,0.0,0.0,50,0.00,OVC,,0.04,WeatherDisplay:10.37,2013-03-11 21:45:00,
2013-03-11 16:50:00,32.9,16.3,29.76,WSW,257,0.0,0.0,50,0.00,OVC,,0.04,WeatherDisplay:10.37,2013-03-11 21:50:00,
2013-03-11 16:55:00,32.9,15.8,29.76,West,276,0.0,0.0,49,0.00,OVC,,0.04,WeatherDisplay:10.37,2013-03-11 21:55:00,
2013-03-11 17:00:00,32.9,14.8,29.76,SW,227,0.0,0.0,47,0.00,OVC,,0.04,WeatherDisplay:10.37,2013-03-11 22:00:00,
2013-03-11 17:05:00,32.9,14.4,29.76,SE,138,0.0,0.0,46,0.00,OVC,,0.04,WeatherDisplay:10.37,2013-03-11 22:05:00,
2013-03-11 17:10:00,32.7,13.2,29.76,WNW,282,0.0,0.0,44,0.00,OVC,,0.04,WeatherDisplay:10.37,2013-03-11 22:10:00,
2013-03-11 17:15:00,32.7,12.7,29.79,NNW,327,0.0,0.0,43,0.00,OVC,,0.04,WeatherDisplay:10.37,2013-03-11 22:15:00,
2013-03-11 17:20:00,32.7,12.7,29.79,West,275,0.0,0.0,43,0.00,OVC,,0.04,WeatherDisplay:10.37,2013-03-11 22:20:00,
2013-03-11 17:25:00,32.5,12.5,29.79,West,274,0.0,0.0,43,0.00,OVC,,0.04,WeatherDisplay:10.37,2013-03-11 22:25:00,
2013-03-11 17:30:00,32.5,13.0,29.79,West,274,0.0,0.0,44,0.00,OVC,,0.04,WeatherDisplay:10.37,2013-03-11 22:30:00,
2013-03-11 17:35:00,32.5,13.0,29.79,West,276,0.0,0.0,44,0.00,OVC,,0.04,WeatherDisplay:10.37,2013-03-11 22:35:00,
2013-03-11 17:40:00,32.4,12.8,29.79,West,272,0.0,0.0,44,0.00,OVC,,0.04,WeatherDisplay:10.37,2013-03-11 22:40:00,
2013-03-11 17:45:00,32.4,12.8,29.79,West,274,0.0,0.0,44,0.00,OVC,,0.04,WeatherDisplay:10.37,2013-03-11 22:45:00,
2013-03-11 17:50:00,32.4,12.8,29.79,West,272,0.0,0.0,44,0.00,OVC,,0.04,WeatherDisplay:10.37,2013-03-11 22:50:00,
2013-03-11 17:55:00,32.4,12.3,29.79,West,274,0.0,0.0,43,0.00,OVC,,0.04,WeatherDisplay:10.37,2013-03-11 22:55:00,
2013-03-11 18:00:00,32.2,12.2,29.82,West,273,0.0,0.0,43,0.00,OVC,,0.04,WeatherDisplay:10.37,2013-03-11 23:00:00,
2013-03-11 18:05:00,32.2,12.2,29.82,West,277,0.0,0.0,43,0.00,OVC,,0.04,WeatherDisplay:10.37,2013-03-11 23:05:00,
2013-03-11 18:10:00,32.0,11.5,29.82,West,275,0.0,0.0,42,0.00,OVC,,0.04,WeatherDisplay:10.37,2013-03-11 23:10:00,
2013-03-11 18:15:00,32.0,11.5,29.82,West,278,0.0,0.0,42,0.00,OVC,,0.04,WeatherDisplay:10.37,2013-03-11 23:15:00,
2013-03-11 18:20:00,32.0,11.5,29.82,West,274,0.0,0.0,42,0.00,OVC,,0.04,WeatherDisplay:10.37,2013-03-11 23:20:00,
2013-03-11 18:25:00,31.8,11.3,29.82,West,274,0.0,0.0,42,0.00,OVC,,0.04,WeatherDisplay:10.37,2013-03-11 23:25:00,
2013-03-11 18:30:00,31.8,11.3,29.82,West,274,0.0,0.0,42,0.00,OVC,,0.04,WeatherDisplay:10.37,2013-03-11 23:30:00,
2013-03-11 18:35:00,31.8,11.3,29.82,West,273,0.0,0.0,42,0.00,OVC,,0.04,WeatherDisplay:10.37,2013-03-11 23:35:00,
2013-03-11 18:40:00,31.8,11.3,29.82,West,272,0.0,0.0,42,0.00,OVC,,0.04,WeatherDisplay:10.37,2013-03-11 23:40:00,
2013-03-11 18:45:00,31.8,11.3,29.82,West,273,0.0,0.0,42,0.00,OVC,,0.04,WeatherDisplay:10.37,2013-03-11 23:45:00,
2013-03-11 18:50:00,31.6,11.1,29.82,West,275,0.0,0.0,42,0.00,OVC,,0.04,WeatherDisplay:10.37,2013-03-11 23:50:00,
2013-03-11 18:55:00,31.6,11.1,29.82,West,274,0.0,0.0,42,0.00,OVC,,0.04,WeatherDisplay:10.37,2013-03-11 23:55:00,
2013-03-11 19:00:00,31.5,11.0,29.82,West,274,0.0,0.0,42,0.00,OVC,,0.04,WeatherDisplay:10.37,2013-03-12 00:00:00,
2013-03-11 19:05:00,31.5,11.0,29.82,West,276,0.0,0.0,42,0.00,OVC,,0.04,WeatherDisplay:10.37,2013-03-12 00:05:00,
2013-03-11 19:10:00,31.3,10.3,29.82,West,277,0.0,0.0,41,0.00,OVC,,0.04,WeatherDisplay:10.37,2013-03-12 00:10:00,
2013-03-11 19:15:00,31.3,10.3,29.82,West,273,0.0,0.0,41,0.00,OVC,,0.04,WeatherDisplay:10.37,2013-03-12 00:15:00,
2013-03-11 19:20:00,31.3,10.3,29.82,West,274,0.0,0.0,41,0.00,OVC,,0.04,WeatherDisplay:10.37,2013-03-12 00:20:00,
2013-03-11 19:25:00,31.1,10.1,29.82,West,274,0.0,0.0,41,0.00,OVC,,0.04,WeatherDisplay:10.37,2013-03-12 00:25:00,
2013-03-11 19:30:00,31.1,10.1,29.85,West,275,0.0,0.0,41,0.00,OVC,,0.04,WeatherDisplay:10.37,2013-03-12 00:30:00,
2013-03-11 19:36:00,31.1,9.6,29.85,West,273,0.0,0.0,40,0.00,OVC,,0.04,WeatherDisplay:10.37,2013-03-12 00:36:00,
2013-03-11 19:41:00,31.1,9.6,29.85,West,275,0.0,0.0,40,0.00,OVC,,0.04,WeatherDisplay:10.37,2013-03-12 00:41:00,
2013-03-11 19:46:00,30.9,9.4,29.85,West,273,0.0,0.0,40,0.00,OVC,,0.04,WeatherDisplay:10.37,2013-03-12 00:46:00,
2013-03-11 19:51:00,30.9,9.4,29.85,West,275,0.0,0.0,40,0.00,OVC,,0.04,WeatherDisplay:10.37,2013-03-12 00:51:00,
2013-03-11 19:57:00,30.9,9.4,29.85,West,273,0.0,0.0,40,0.00,OVC,,0.04,WeatherDisplay:10.37,2013-03-12 00:57:00,
2013-03-11 20:02:00,30.7,9.8,29.85,West,274,0.0,0.0,41,0.00,OVC,,0.04,WeatherDisplay:10.37,2013-03-12 01:02:00,
2013-03-11 20:07:00,30.7,9.8,29.85,West,276,0.0,0.0,41,0.00,OVC,,0.04,WeatherDisplay:10.37,2013-03-12 01:07:00,
2013-03-11 20:12:00,30.7,9.2,29.85,West,275,0.0,0.0,40,0.00,OVC,,0.04,WeatherDisplay:10.37,2013-03-12 01:12:00,
2013-03-11 20:17:00,30.7,9.2,29.85,West,275,0.0,0.0,40,0.00,OVC,,0.04,WeatherDisplay:10.37,2013-03-12 01:17:00,
2013-03-11 20:22:00,30.6,9.1,29.85,West,273,0.0,0.0,40,0.00,OVC,,0.04,WeatherDisplay:10.37,2013-03-12 01:22:00,
2013-03-11 20:27:00,30.6,9.1,29.85,West,275,0.0,0.0,40,0.00,OVC,,0.04,WeatherDisplay:10.37,2013-03-12 01:27:00,
2013-03-11 20:32:00,30.6,9.1,29.85,West,275,0.0,0.0,40,0.00,OVC,,0.04,WeatherDisplay:10.37,2013-03-12 01:32:00,
2013-03-11 20:37:00,30.6,9.1,29.85,West,274,0.0,0.0,40,0.00,OVC,,0.04,WeatherDisplay:10.37,2013-03-12 01:37:00,
2013-03-11 20:42:00,30.4,8.9,29.85,West,273,0.0,0.0,40,0.00,OVC,,0.04,WeatherDisplay:10.37,2013-03-12 01:42:00,
2013-03-11 20:47:00,30.4,8.9,29.88,West,275,0.0,0.0,40,0.00,OVC,,0.04,WeatherDisplay:10.37,2013-03-12 01:47:00,
2013-03-11 20:52:00,30.4,7.8,29.88,West,273,0.0,0.0,38,0.00,OVC,,0.04,WeatherDisplay:10.37,2013-03-12 01:52:00,
2013-03-11 20:57:00,30.4,7.8,29.85,West,276,0.0,0.0,38,0.00,OVC,,0.04,WeatherDisplay:10.37,2013-03-12 01:57:00,
2013-03-11 21:02:00,30.4,7.8,29.85,West,276,0.0,0.0,38,0.00,OVC,,0.04,WeatherDisplay:10.37,2013-03-12 02:02:00,
2013-03-11 21:07:00,30.4,7.8,29.85,West,274,0.0,0.0,38,0.00,OVC,,0.04,WeatherDisplay:10.37,2013-03-12 02:07:00,
2013-03-11 21:12:00,30.4,7.8,29.88,West,276,0.0,0.0,38,0.00,OVC,,0.04,WeatherDisplay:10.37,2013-03-12 02:12:00,
2013-03-11 21:17:00,30.4,7.8,29.88,West,275,0.0,0.0,38,0.00,OVC,,0.04,WeatherDisplay:10.37,2013-03-12 02:17:00,
2013-03-11 21:22:00,30.4,7.2,29.88,West,274,0.0,0.0,37,0.00,OVC,,0.04,WeatherDisplay:10.37,2013-03-12 02:22:00,
2013-03-11 21:27:00,30.4,7.2,29.91,West,272,0.0,0.0,37,0.00,OVC,,0.04,WeatherDisplay:10.37,2013-03-12 02:27:00,
2013-03-11 21:33:00,30.4,7.2,29.91,West,277,0.0,0.0,37,0.00,OVC,,0.04,WeatherDisplay:10.37,2013-03-12 02:33:00,
2013-03-11 21:38:00,30.4,7.8,29.91,West,274,0.0,0.0,38,0.00,OVC,,0.04,WeatherDisplay:10.37,2013-03-12 02:38:00,
2013-03-11 21:43:00,30.4,7.2,29.91,West,275,0.0,0.0,37,0.00,OVC,,0.04,WeatherDisplay:10.37,2013-03-12 02:43:00,
2013-03-11 21:48:00,30.2,7.0,29.91,West,275,0.0,0.0,37,0.00,OVC,,0.04,WeatherDisplay:10.37,2013-03-12 02:48:00,
2013-03-11 21:53:00,30.2,7.0,29.91,West,273,0.0,0.0,37,0.00,OVC,,0.04,WeatherDisplay:10.37,2013-03-12 02:53:00,
2013-03-11 21:58:00,30.2,5.8,29.91,West,274,0.0,0.0,35,0.00,OVC,,0.04,WeatherDisplay:10.37,2013-03-12 02:58:00,
2013-03-11 22:03:00,30.2,5.2,29.91,West,277,0.0,0.0,34,0.00,OVC,,0.04,WeatherDisplay:10.37,2013-03-12 03:03:00,
2013-03-11 22:08:00,30.2,5.2,29.91,West,273,0.0,0.0,34,0.00,OVC,,0.04,WeatherDisplay:10.37,2013-03-12 03:08:00,
2013-03-11 22:13:00,30.0,5.0,29.91,West,274,0.0,0.0,34,0.00,OVC,,0.04,WeatherDisplay:10.37,2013-03-12 03:13:00,
2013-03-11 22:18:00,30.0,4.3,29.91,West,273,0.0,0.0,33,0.00,OVC,,0.04,WeatherDisplay:10.37,2013-03-12 03:18:00,
2013-03-11 22:23:00,30.0,4.3,29.91,West,274,0.0,0.0,33,0.00,OVC,,0.04,WeatherDisplay:10.37,2013-03-12 03:23:00,
2013-03-11 22:28:00,29.8,4.2,29.94,West,276,0.0,0.0,33,0.00,OVC,,0.04,WeatherDisplay:10.37,2013-03-12 03:28:00,
2013-03-11 22:33:00,29.8,3.5,29.94,West,273,0.0,0.0,32,0.00,OVC,,0.04,WeatherDisplay:10.37,2013-03-12 03:33:00,
2013-03-11 22:38:00,29.7,3.4,29.94,West,274,0.0,0.0,32,0.00,OVC,,0.04,WeatherDisplay:10.37,2013-03-12 03:38:00,
2013-03-11 22:43:00,29.5,3.2,29.94,West,274,0.0,0.0,32,0.00,OVC,,0.04,WeatherDisplay:10.37,2013-03-12 03:43:00,
2013-03-11 22:48:00,29.5,3.2,29.94,West,275,0.0,0.0,32,0.00,OVC,,0.04,WeatherDisplay:10.37,2013-03-12 03:48:00,
2013-03-11 22:53:00,29.5,3.2,29.94,West,274,0.0,0.0,32,0.00,OVC,,0.04,WeatherDisplay:10.37,2013-03-12 03:53:00,
2013-03-11 22:59:00,29.3,3.0,29.94,West,274,0.0,0.0,32,0.00,OVC,,0.04,WeatherDisplay:10.37,2013-03-12 03:59:00,
2013-03-11 23:00:00,29.3,2.4,29.94,West,275,0.0,0.0,31,0.00,OVC,,0.04,WeatherDisplay:10.37,2013-03-12 04:00:00,
2013-03-11 23:01:00,29.3,2.4,29.94,West,276,0.0,0.0,31,0.00,OVC,,0.04,WeatherDisplay:10.37,2013-03-12 04:01:00,
2013-03-11 23:06:00,29.3,2.4,29.94,West,276,0.0,0.0,31,0.00,OVC,,0.04,WeatherDisplay:10.37,2013-03-12 04:06:00,
2013-03-11 23:11:00,29.3,3.0,29.94,West,273,0.0,0.0,32,0.00,OVC,,0.04,WeatherDisplay:10.37,2013-03-12 04:11:00,
2013-03-11 23:16:00,29.1,2.9,29.91,West,273,0.0,0.0,32,0.00,OVC,,0.04,WeatherDisplay:10.37,2013-03-12 04:16:00,
2013-03-11 23:21:00,29.1,2.9,29.91,West,275,0.0,0.0,32,0.00,OVC,,0.04,WeatherDisplay:10.37,2013-03-12 04:21:00,
2013-03-11 23:26:00,29.1,2.9,29.91,West,276,0.0,0.0,32,0.00,OVC,,0.04,WeatherDisplay:10.37,2013-03-12 04:26:00,
2013-03-11 23:31:00,29.1,2.2,29.94,West,276,0.0,0.0,31,0.00,OVC,,0.04,WeatherDisplay:10.37,2013-03-12 04:31:00,
2013-03-11 23:37:00,29.1,2.9,29.94,West,275,0.0,0.0,32,0.00,OVC,,0.04,WeatherDisplay:10.37,2013-03-12 04:37:00,
2013-03-11 23:42:00,29.1,2.2,29.94,West,276,0.0,0.0,31,0.00,OVC,,0.04,WeatherDisplay:10.37,2013-03-12 04:42:00,
2013-03-11 23:47:00,29.1,2.2,29.94,West,275,0.0,0.0,31,0.00,OVC,,0.04,WeatherDisplay:10.37,2013-03-12 04:47:00,
2013-03-11 23:52:00,29.1,2.2,29.94,West,275,0.0,0.0,31,0.00,OVC,,0.04,WeatherDisplay:10.37,2013-03-12 04:52:00,
2013-03-11 23:57:00,29.1,2.2,29.94,West,274,0.0,0.0,31,0.00,OVC,,0.04,WeatherDisplay:10.37,2013-03-12 04:57:00,